Weather History for Vancouver, BC

Change the Weather History Date:

Tuesday, September 17, 2013

  Actual Average Record
Temperature  
Mean Temperature 59 °F -  
Max Temperature 64 °F 62 °F 71 °F (2012)
Min Temperature 53 °F 50 °F 48 °F (1996)
Degree Days  
Heating Degree Days 6    
Growing Degree Days 9 (Base 50)    
Moisture  
Dew Point 55 °F    
Average Humidity 87    
Maximum Humidity 100    
Minimum Humidity 64    
Precipitation  
Precipitation 0.00 in - - ()
Sea Level Pressure  
Sea Level Pressure 29.88 in    
Wind  
Wind Speed 5 mph ()    
Max Wind Speed 13 mph    
Max Gust Speed -    
Visibility 14.2 miles    
Events      
Averages and records for this station are not official NWS values.
T = Trace of Precipitation, MM = Missing Value Source: Averaged Metar Reports

Daily Weather History Graph

Daily Weather History Graph

Search for Another Location

Airport:

Trip Planner

Search our weather history database for the weather conditions in past years. The results will help you decide how hot, cold, wet, or windy it might be!

Date:

Astronomy

Sep. 17, 2013 Rise Set
Actual Time 6:52 AM PDT 7:20 PM PDT
Civil Twilight 6:20 AM PDT 7:52 PM PDT
Nautical Twilight 5:42 AM PDT 8:30 PM PDT
Astronomical Twilight 5:03 AM PDT 9:09 PM PDT
Moon 6:14 PM PDT (9/17) 4:46 AM PDT (9/17)
Length of Visible Light 13h 31m
Length of Day
12h 28m
Waxing Gibbous, 96% of the Moon is Illuminated
Sep 17
Waxing Gibbous
Sep 19
Full
Sep 26
Last Quarter
Oct 4
New
Oct 11
First Quarter

Hourly Weather History & Observations

Time (PDT) Temp. Dew Point Humidity Pressure Visibility Wind Dir Wind Speed Gust Speed Precip Events Conditions
12:00 AM 57.2 °F 55.4 °F 94% 29.91 in 15.0 mi NNW 2.3 mph - N/A   Mostly Cloudy
1:00 AM 57.2 °F 55.4 °F 94% 29.91 in 15.0 mi SE 4.6 mph - N/A   Overcast
1:42 AM 57.2 °F 57.2 °F 100% 29.91 in 8.0 mi ESE 4.6 mph - N/A   Overcast
2:00 AM 57.2 °F 55.4 °F 94% 29.90 in 15.0 mi East 4.6 mph - N/A   Overcast
2:54 AM 55.4 °F 55.4 °F 100% 29.90 in 10.0 mi East 5.8 mph - N/A   Overcast
3:00 AM 57.2 °F 55.4 °F 94% 29.90 in 8.0 mi East 4.6 mph - N/A   Overcast
3:26 AM 55.4 °F 55.4 °F 100% 29.89 in 12.0 mi East 4.6 mph - N/A   Overcast
4:00 AM 57.2 °F 55.4 °F 94% 29.89 in 12.0 mi East 3.5 mph - N/A   Overcast
4:15 AM 57.2 °F 55.4 °F 94% 29.89 in 10.0 mi East 2.3 mph - N/A   Overcast
5:00 AM 57 °F 55 °F 92% 29.88 in 7 mi ESE 6.9 mph - -   Overcast
5:00 AM 57.2 °F 55.4 °F 94% 29.88 in 8.0 mi East 6.9 mph - N/A   Overcast
5:21 AM 57.2 °F 55.4 °F 94% 29.88 in 10.0 mi East 4.6 mph - N/A   Overcast
6:00 AM 55.4 °F 53.6 °F 94% 29.88 in 12.0 mi East 5.8 mph - N/A   Overcast
7:00 AM 55.4 °F 51.8 °F 88% 29.88 in 12.0 mi East 5.8 mph - N/A   Overcast
7:48 AM 57.2 °F 53.6 °F 88% 29.88 in 15.0 mi ESE 4.6 mph - N/A   Overcast
8:00 AM 57.2 °F 53.6 °F 88% 29.88 in 15.0 mi SE 4.6 mph - N/A   Overcast
9:00 AM 57.2 °F 53.6 °F 88% 29.87 in 12.0 mi ESE 3.5 mph - N/A   Overcast
9:55 AM 59.0 °F 55.4 °F 88% 29.87 in 15.0 mi East 3.5 mph - N/A   Overcast
10:00 AM 59.0 °F 55.4 °F 88% 29.87 in 15.0 mi ESE 3.5 mph - N/A   Overcast
10:06 AM 59.0 °F 55.4 °F 88% 29.87 in 15.0 mi ESE 3.5 mph - N/A   Overcast
10:35 AM 59.0 °F 55.4 °F 88% 29.87 in 15.0 mi SE 4.6 mph - N/A   Overcast
11:00 AM 62 °F 56 °F 77% 29.87 in 15 mi West 3.5 mph - -   Overcast
11:00 AM 62.6 °F 57.2 °F 82% 29.87 in 15.0 mi WSW 4.6 mph - N/A   Overcast
12:00 PM 62.6 °F 57.2 °F 82% 29.86 in 15.0 mi West 9.2 mph - N/A   Overcast
1:00 PM 62.6 °F 57.2 °F 82% 29.86 in 15.0 mi WNW 9.2 mph - N/A   Overcast
2:00 PM 64.4 °F 57.2 °F 77% 29.85 in 15.0 mi WNW 12.7 mph - N/A   Overcast
3:00 PM 64.4 °F 55.4 °F 73% 29.85 in 20.0 mi WNW 10.4 mph - N/A   Overcast
4:00 PM 64.4 °F 55.4 °F 73% 29.84 in 30.0 mi West 8.1 mph - N/A   Overcast
5:00 PM 63 °F 54 °F 64% 29.84 in 28 mi WSW 9.2 mph - -   Overcast
5:00 PM 62.6 °F 53.6 °F 72% 29.84 in 30.0 mi WSW 9.2 mph - N/A   Overcast
6:00 PM 62.6 °F 53.6 °F 72% 29.84 in 30.0 mi SSW 8.1 mph - N/A   Overcast
7:00 PM 60.8 °F 55.4 °F 82% 29.84 in 20.0 mi South 6.9 mph - N/A   Overcast
8:00 PM 59.0 °F 53.6 °F 82% 29.86 in 20.0 mi SE 6.9 mph - N/A   Overcast
9:00 PM 57.2 °F 51.8 °F 82% 29.88 in 20.0 mi ESE 5.8 mph - N/A   Mostly Cloudy
10:00 PM 55.4 °F 51.8 °F 88% 29.89 in 20.0 mi East 5.8 mph - N/A   Scattered Clouds
11:00 PM 54 °F 51 °F 88% 29.90 in 19 mi East 8.1 mph - -   Partly Cloudy
11:00 PM 53.6 °F 51.8 °F 94% 29.89 in 20.0 mi East 8.1 mph - N/A   Scattered Clouds